[[{"header":{"parameterUnit":"m.s-1","parameterCategory":1,"la1":30.2992,"la2":30.254,"lo1":-89.0895,"lo2":-89.0443,"dy":0.0025,"dx":0.0025,"nx":19,"ny":19,"refTime":"2026-05-04T21:00:00:Z","depth":0,"parameterNumber":2,"parameterNumberName":"U-component_of_WINDS"},"data":[0,0,0,-0.1018,-0.1016,-0.0885,-0.0884,-0.074,-0.0738,0,0,0,0,0,0,0,0,0,0,0,-0.1069,-0.1068,-0.1018,-0.1015,-0.0885,-0.0884,-0.074,-0.0738,0,0,0,0,0,0,0,0,0,0,0,-0.1069,-0.1068,-0.1067,-0.1015,-0.0885,-0.0884,-0.074,-0.0831,0,0,0,0,0,0,0,0,0,0,-0.0954,-0.1012,-0.1068,-0.1067,-0.1014,-0.0885,-0.0884,-0.0835,-0.0825,-0.0808,0,-0.0794,0,-0.0764,-0.073,-0.073,0,0,0,-0.1007,-0.102,-0.0974,-0.1067,-0.1013,-0.0886,-0.0941,-0.0829,-0.0818,-0.0795,-0.0792,-0.0786,-0.0762,-0.0729,-0.0729,-0.0658,-0.0658,0,0,-0.1014,-0.1051,-0.0982,-0.0968,-0.0988,-0.0946,-0.0937,-0.0822,-0.0822,-0.0791,-0.0782,-0.0759,-0.0728,-0.0727,-0.0657,-0.0658,0,0,0,-0.104,-0.1057,-0.1013,-0.0974,-0.0949,-0.0942,-0.0933,-0.0827,-0.0809,-0.0781,-0.0758,-0.0728,-0.0726,-0.0657,-0.0658,-0.0699,0,0,0,-0.1044,-0.1072,-0.1017,-0.1039,-0.0952,-0.0886,-0.094,-0.0817,-0.0803,-0.0759,-0.0728,-0.0725,-0.0657,-0.0657,-0.0698,-0.0713,0,0,0,-0.1073,-0.1076,-0.1061,-0.1041,-0.0986,-0.0887,-0.0862,-0.0813,-0.079,-0.0729,-0.0725,-0.0657,-0.0657,-0.0697,-0.071,-0.0707,0,0,0,-0.1115,-0.1098,-0.1062,-0.1035,-0.0988,-0.0914,-0.0863,-0.0805,-0.0759,-0.0727,-0.0657,-0.0657,-0.0696,-0.0709,-0.0706,-0.0712,-0.0717,0,0,-0.1115,-0.1099,-0.1081,-0.1045,-0.0987,-0.093,-0.0879,-0.08,-0.0759,-0.0694,-0.0692,-0.0698,-0.071,-0.0707,-0.0734,-0.0738,0,0,0,-0.1094,-0.1081,-0.1057,-0.1015,-0.0955,-0.0906,-0.0831,-0.0803,-0.0746,-0.0733,-0.0694,-0.07,-0.0697,-0.0698,-0.0702,-0.0698,-0.0659,-0.0659,-0.0659,-0.1147,-0.1098,-0.1065,-0.1001,-0.0961,-0.0886,-0.085,-0.0799,-0.0759,-0.0752,-0.0732,-0.0754,-0.0757,-0.076,-0.0756,-0.073,-0.073,-0.073,-0.073,-0.1144,-0.1119,-0.107,-0.102,-0.097,-0.0928,-0.0857,-0.0831,-0.0786,-0.0764,-0.0758,-0.0739,-0.0766,-0.0761,-0.0733,-0.0733,-0.0732,-0.0732,-0.0732,-0.1173,-0.1153,-0.112,-0.1057,-0.1014,-0.0951,-0.0911,-0.0866,-0.0823,-0.0817,-0.0794,-0.0793,-0.0788,-0.0809,-0.0809,-0.0809,-0.0809,-0.081,-0.081,-0.1218,-0.1179,-0.1151,-0.1089,-0.1059,-0.1013,-0.0941,-0.091,-0.0864,-0.0834,-0.0834,-0.0798,-0.0778,-0.0775,-0.0811,-0.081,-0.081,-0.081,-0.081,-0.1233,-0.1224,-0.118,-0.115,-0.1076,-0.104,-0.0983,-0.0925,-0.0893,-0.0876,-0.0841,-0.0834,-0.0814,-0.0811,-0.0808,-0.085,-0.085,-0.085,-0.085,-0.1259,-0.1246,-0.1193,-0.1149,-0.11,-0.1046,-0.1002,-0.0949,-0.0891,-0.0869,-0.0856,-0.0849,-0.0847,-0.0829,-0.0825,-0.0822,-0.0867,-0.0867,-0.0867,-0.1267,-0.1248,-0.1218,-0.1162,-0.1102,-0.1054,-0.1012,-0.0965,-0.0897,-0.0866,-0.0852,-0.0851,-0.0838,-0.0836,-0.0804,-0.0798,-0.0791,0,0]},{"header":{"parameterUnit":"m.s-1","parameterCategory":1,"la1":30.2992,"la2":30.254,"lo1":-89.0895,"lo2":-89.0443,"dy":0.0025,"dx":0.0025,"nx":19,"ny":19,"refTime":"2026-05-04T21:00:00:Z","depth":0,"parameterNumber":3,"parameterNumberName":"V-component_of_WINDS"},"data":[0,0,0,4.1409,4.1407,4.1349,4.1349,4.1258,4.1257,0,0,0,0,0,0,0,0,0,0,0,4.1422,4.1421,4.1409,4.1407,4.1349,4.1349,4.1258,4.1257,0,0,0,0,0,0,0,0,0,0,0,4.1422,4.1422,4.1421,4.1407,4.1349,4.1349,4.1259,4.1307,0,0,0,0,0,0,0,0,0,0,4.1366,4.1376,4.1422,4.1421,4.1407,4.1349,4.1349,4.1309,4.1304,4.128,0,4.1262,0,4.1259,4.1251,4.125,0,0,0,4.1409,4.1381,4.1369,4.1421,4.1406,4.1349,4.1376,4.1306,4.13,4.1272,4.1261,4.1258,4.1257,4.125,4.125,4.1117,4.1116,0,0,4.1412,4.1408,4.1373,4.1365,4.1379,4.1377,4.1374,4.1303,4.1288,4.1261,4.1256,4.1256,4.125,4.1249,4.1117,4.1116,0,0,0,4.142,4.141,4.1401,4.1368,4.1359,4.1376,4.1372,4.1291,4.1289,4.1255,4.1255,4.1249,4.1248,4.1118,4.1117,4.1079,0,0,0,4.1422,4.1415,4.1402,4.1399,4.136,4.1326,4.1361,4.1294,4.1286,4.1255,4.1249,4.1247,4.1119,4.1117,4.1082,4.1061,0,0,0,4.1427,4.1416,4.1407,4.1399,4.1374,4.1327,4.132,4.1292,4.1285,4.125,4.1247,4.1119,4.1118,4.1085,4.1065,4.1023,0,0,0,4.143,4.1373,4.1406,4.1342,4.1375,4.1307,4.1321,4.1269,4.1235,4.1248,4.1119,4.1117,4.1085,4.1067,4.1026,4.0985,4.097,0,0,4.1356,4.1364,4.1327,4.1355,4.128,4.1316,4.1233,4.1203,4.1201,4.1143,4.114,4.1081,4.1065,4.1023,4.0886,4.0873,0,0,0,4.1302,4.1274,4.1255,4.1225,4.1204,4.1181,4.1166,4.1154,4.1106,4.1173,4.1056,4.1047,4.1022,4.1003,4.0992,4.0969,4.1109,4.1109,4.1109,4.1189,4.1193,4.113,4.1126,4.1095,4.108,4.1053,4.1034,4.1044,4.1016,4.0998,4.0915,4.0893,4.0884,4.0861,4.098,4.098,4.098,4.0979,4.1078,4.1039,4.1056,4.1001,4.1003,4.0955,4.0935,4.0944,4.0896,4.0929,4.0908,4.0941,4.0871,4.085,4.0977,4.0977,4.0978,4.0978,4.0978,4.1003,4.0984,4.0974,4.0929,4.0893,4.0889,4.0843,4.0846,4.0848,4.0827,4.0805,4.0806,4.0804,4.0817,4.0817,4.0817,4.0816,4.0816,4.0816,4.0927,4.0917,4.088,4.0853,4.0832,4.0805,4.0788,4.0766,4.0741,4.0746,4.0746,4.0756,4.0865,4.0891,4.0811,4.0812,4.0813,4.0813,4.0813,4.0808,4.0836,4.0779,4.0759,4.0725,4.0686,4.0692,4.0646,4.0628,4.0604,4.0619,4.0701,4.0707,4.0716,4.0737,4.0622,4.0622,4.0622,4.0622,4.0742,4.0748,4.0689,4.0656,4.0624,4.0623,4.0551,4.0535,4.0522,4.051,4.0527,4.0556,4.0565,4.0566,4.0578,4.0597,4.045,4.0449,4.0449,4.0667,4.067,4.0611,4.0604,4.0577,4.0552,4.0484,4.044,4.0431,4.0442,4.0499,4.0506,4.0553,4.0569,4.0579,4.0597,4.0633,0,0]}]]